DIRECTV 10 (31862 NORAD) Tracking and Keplerian Element Data

This shows tracking and keplerian element data for the satellite.

Feedback or suggestion? Click here.




ElementValue
Catalog31862
NameDIRECTV 10
Epoch Orbit4041
Epoch Day198.46562192
Epoch Year2018
RAAN229.9054
Inclination0.0446
Eccentricity5.04E-05
Argument of Perigee351.2992
Mean Anonmoly138.7732
Mean Motion1.00270391
Decay Rate-1.22E-06
L11 31862U 07032A 18198.46562192 -.00000122 00000-0 00000+0 0 9999
L22 31862 0.0446 229.9054 0000504 351.2992 138.7732 1.00270391 40410

Live tracking and technical data element details for DIRECTV 10 (NORAD 31862). DIRECTV 10 can be tracked NOW for your location showing map with azimuth and elevation plus other details from your city location.

Track the satellite on the map from your city or location and see movement details for azimuth, elevation, latitude, longitude, range, height, and movement on the map or in text.







IsCatalogInMostPopularTable: catalog: 31862, numindb: 43
Update: records affected: 1



GetName: 31862 DIRECTV 10

Hit Count: updated at: Sat, 21 Jul 2018 07:42:23 GMT